STARLINK-37197, 68389

Orbit data source: Space-Track

STARLINK-37197, 68389 is a payload satellite owned by SpaceX/Seattle (US) in SSO that was launched on Thu, 26 Mar 2026 UTC via an FALCON 9 launch vehicle from the Air Force Western Test Range (AFWTR). Payload-class satellites include a variety of spacecraft equipped with specific instruments for various scientific and technological missions. These include communications satellites like Starlink; space stations such as the ISS; scientific satellites like the Hubble; Earth observation satellites from companies like Planet Labs, Umbra, and HawkEye 360; GPS; miniature CubeSats for education and research; and military/defense satellites.

Not visible in the next 10 days
Identifier
68389, 2026-063K
Orbit
SSO
Country
Flag of USUS
Related business
Manufacturer
SpaceX/Seattle
Mission
Operational spacecraft
Bus & Motor
STARLINK V2MO, Unknown motor
Mass
575 kg wet, ~530 kg dry
Launch date (UTC)
2026-03-26 (1 week ago)
Launch vehicle
FALCON 9
Launch site
Air Force Western Test Range (AFWTR)
Object type
Payload
Rocket body
Debris
Shape & HBR
Unknown shape, 17.7 m
Radar Cross Section
RCS unknown

Expand to show TLE details & history
Last TLE update: 5 hours ago

TLE from 5 hours ago
0 STARLINK-37197
1 68389U 26063K   26095.50003471 -.01915789  00000-0 -79892-2 0  9992
2 68389  97.2819 236.5151 0001823  55.4124  41.7317 15.88824226  2764
Epoch: 2026-04-05T12:00Z
TLE epoch observation values (Epoch: 2026-04-05T12:00:02.998Z)
Latitude
79.85275°
Longitude
87.9268°
Altitude
318.021 km
Speed
7.725 km/s
True Right ascension
06h 46m 58s
True Declination
79° 47' 20"
Sunlit
Object was in daylight at epoch
Visualization orbit readout
Latitude
Unknown
Longitude
Unknown
Altitude
Unknown
Speed
Unknown
Apparent Right ascension
Unknown
Apparent Declination
Unknown
Sunlit
N/A
Visualization observer readout
Local Sidereal Time
23:11:04
Azimuth
Unknown
Elevation
Unknown
Doppler factor
Unknown
Orbital elements
Apogee altitude
303.665 km
Perigee altitude
301.23 km
Semi-major axis
6,680.585 km
Eccentricity
0.00018
Inclination
97.2819°
RAAN
236.5151°
Arg. of periapsis
55.4124°
True anomaly
41.74561°
Mean anomaly
41.7317°
Eccentric anomaly
41.73865°
Mean motion
3.97486 °/min
Orbital period
90.57 mins
BSTAR
-0.0079892
Loading maneuver chart data...
Computing Atmospheric mass density...
Loading historical data...
Loading historical data...
Loading historical data...
Loading historical data...
Loading historical data...
Loading historical data...
Loading historical data...

Documentation

Showing up to 5 results
|